Vorticity
4 4 5 5 5 5 5 5 4 4 4 3 3 3 2 2 2 2 2 2 3 4 5 6 7 9 10 12 13 13 13 12 11 8 6 3 1 -0 -1 -0 0 1 4 9 12 11 8 4 4 5 7 8 9 8 5 4 3 3 4 4 4 4 3 3 2 2 3 4 4 4 4 3 3 2 1 1 2 2 3 2 3 3 4 4 3 2 2 2 2 3 4 4 5 6 8 9 10 9 9 9 9 9 9
4 4 4 4 4 4 5 5 5 5 5 5 4 4 4 3 3 2 2 2 2 2 3 4 5 6 7 9 10 12 13 13 13 11 9 7 5 2 0 -1 -1 -0 -0 3 8 12 12 8 4 3 8 8 8 8 8 6 4 3 3 4 4 5 4 4 3 3 3 3 4 4 5 4 3 3 2 1 1 1 2 2 2 2 3 4 3 2 2 1 2 2 2 3 3 4 6 7 8 8 8 8 9 9 9
4 3 3 3 3 4 4 4 4 5 5 5 5 5 5 5 4 4 3 3 2 2 2 3 3 4 5 6 7 9 10 12 13 13 12 10 8 6 3 1 -0 -1 -1 -1 2 7 13 13 8 3 3 5 6 7 10 8 6 4 3 3 4 4 5 4 4 3 3 3 3 4 5 5 4 3 2 2 1 1 2 2 2 2 3 3 3 4 3 2 1 1 2 2 2 3 4 5 7 7 7 8 8 8 8
4 4 4 4 4 4 4 4 4 4 5 5 5 5 5 5 5 5 5 4 4 3 2 2 2 3 3 4 5 6 7 9 11 12 13 13 11 9 7 4 2 1 -1 -1 -1 1 7 13 13 9 4 4 4 5 6 8 7 6 3 3 3 4 4 4 4 4 3 3 3 3 4 5 5 4 3 3 2 2 3 3 3 3 4 4 4 5 4 3 2 2 1 1 1 2 2 4 5 7 8 8 8 7 7
5 5 5 5 5 4 4 4 4 4 4 5 5 5 5 5 5 6 6 5 5 5 4 4 3 3 3 3 3 4 5 6 8 10 11 13 13 12 10 8 5 3 1 -0 -1 -1 1 7 12 14 11 7 5 4 5 7 8 8 5 3 3 3 4 4 4 4 4 3 3 3 3 4 5 5 4 3 3 2 2 2 3 3 3 4 5 6 4 2 3 4 3 2 1 1 1 2 3 5 6 6 6 6 6
6 6 6 6 6 6 5 5 5 5 4 5 5 5 5 5 5 6 6 6 6 6 6 5 4 4 3 3 3 3 3 4 5 7 8 10 12 13 12 10 8 6 4 2 0 -1 -2 1 6 11 14 12 9 6 4 6 7 8 8 6 4 3 3 3 4 4 4 4 4 3 3 3 4 5 5 4 3 2 2 2 2 2 1 1 3 5 3 0 2 5 7 4 2 1 1 1 2 3 4 4 4 4 4
6 7 7 7 7 7 7 7 6 6 5 5 5 5 5 5 6 6 6 6 6 6 6 6 5 5 4 4 3 3 3 3 4 4 6 7 9 11 12 12 11 9 7 5 3 2 -0 -1 0 4 10 12 12 9 6 6 6 6 7 8 6 5 3 3 3 3 3 4 4 4 3 3 4 4 4 4 4 3 3 2 1 0 -0 -1 1 3 3 0 0 3 7 7 4 1 1 1 1 2 2 3 3 3 3
5 6 6 7 7 7 8 8 8 7 7 7 6 6 6 6 6 6 6 6 7 7 7 6 6 6 5 5 4 3 3 3 3 3 4 5 6 8 10 11 12 11 10 8 6 4 3 0 -1 -0 3 8 10 11 10 8 6 5 6 7 8 7 5 3 3 3 3 3 4 4 4 4 5 5 4 4 4 4 3 3 2 1 0 -0 0 2 3 2 1 1 4 8 7 4 1 1 1 2 2 2 2 2 2
4 5 5 6 6 7 7 7 8 8 8 8 7 7 7 7 6 7 7 7 7 7 7 7 6 6 6 6 5 4 4 3 3 3 3 4 4 5 7 9 11 12 11 10 8 7 5 3 1 -1 -0 3 6 9 10 10 9 7 6 6 7 7 6 5 3 2 2 3 3 4 4 4 5 6 6 5 4 3 3 3 3 2 1 0 1 2 4 3 2 1 3 6 8 7 3 1 1 1 2 2 2 2 2
3 4 4 5 5 6 6 6 7 7 8 8 8 8 8 8 8 7 7 7 7 7 7 7 7 7 7 7 6 6 5 5 4 4 3 3 3 4 5 6 8 10 11 11 10 9 7 5 3 2 0 1 3 5 8 9 10 9 8 6 6 6 7 6 5 3 2 2 3 3 4 3 3 4 5 5 6 6 5 3 3 3 2 2 2 2 3 4 3 3 3 5 8 9 7 3 1 1 2 2 2 2 2
3 3 3 4 4 5 5 6 6 7 7 7 8 8 8 9 9 8 8 8 7 7 7 7 7 7 7 7 7 7 6 6 5 4 4 3 3 3 4 4 6 7 9 10 11 10 9 8 6 4 2 1 1 3 5 7 9 10 10 8 6 6 7 7 6 4 3 2 2 3 4 4 4 4 4 4 6 7 8 5 5 5 4 4 5 4 3 3 4 4 3 4 6 9 10 5 2 1 1 2 2 2 2
3 3 3 3 3 4 4 5 6 6 6 7 7 8 8 9 9 9 9 8 8 8 7 7 7 7 7 8 7 7 7 6 6 5 4 4 3 3 3 4 4 5 6 8 9 10 10 9 8 6 4 3 2 2 3 5 7 8 10 9 8 7 7 7 7 6 4 3 2 2 3 5 6 6 6 5 4 4 7 6 5 5 6 5 6 6 6 4 3 4 3 3 5 8 12 7 4 1 1 2 2 2 2
4 4 4 3 3 3 3 4 5 5 6 6 7 7 8 9 9 9 9 9 9 9 8 8 8 7 7 8 8 8 8 7 7 6 5 4 4 4 3 4 4 4 5 6 7 9 10 10 9 8 6 5 3 2 3 4 5 6 8 9 9 8 8 7 8 7 6 4 3 2 3 5 6 7 8 6 4 3 4 5 5 6 6 5 5 6 7 4 3 3 3 2 3 6 12 10 6 2 1 2 2 2 2
7 7 6 5 5 4 4 4 4 4 5 6 7 7 8 9 9 9 9 9 9 9 9 9 9 8 8 8 8 8 8 8 7 7 6 5 5 4 4 4 4 4 4 4 5 6 8 9 10 10 8 7 5 3 3 3 4 5 6 7 8 9 9 8 8 7 7 6 5 3 3 3 4 5 7 8 7 6 5 6 7 6 5 5 5 6 8 6 4 3 2 2 2 4 9 11 8 3 1 2 2 2 2
9 9 9 8 8 7 6 5 5 5 5 5 6 7 8 9 9 9 9 9 10 10 10 10 10 9 9 8 8 8 9 8 8 7 7 6 6 5 5 4 4 4 4 4 4 5 6 7 9 10 10 8 7 5 3 2 3 4 5 6 7 8 10 10 9 8 8 7 6 5 4 3 3 4 6 7 8 8 7 7 8 7 6 5 6 7 9 8 6 3 2 1 1 3 6 10 8 5 2 2 2 2 2
10 10 10 10 10 9 9 8 7 6 5 5 5 6 7 8 9 9 9 9 9 10 10 10 10 10 10 10 9 9 9 9 8 8 7 7 6 6 6 5 5 4 4 4 4 4 4 5 7 8 9 9 8 7 5 3 2 3 4 6 6 6 7 9 10 11 10 9 8 6 5 4 3 3 4 6 6 7 7 7 7 7 6 5 6 6 6 8 6 4 1 1 2 3 6 8 8 6 3 2 2 2 2
9 10 10 10 10 10 10 10 9 8 7 7 6 6 6 7 8 8 8 9 9 9 9 10 10 11 11 11 10 10 10 9 9 9 8 7 7 7 6 6 5 5 4 4 4 4 4 4 5 6 8 9 9 9 7 5 3 2 2 4 5 5 4 5 7 9 11 11 10 8 7 6 4 3 3 5 6 6 6 5 5 5 6 5 5 4 4 5 5 4 1 1 2 4 7 9 9 7 4 3 2 2 2
8 8 8 8 9 9 9 9 9 9 9 8 8 7 7 7 7 7 7 8 8 9 9 9 10 11 11 11 11 11 11 10 10 10 9 8 7 7 7 6 6 5 5 4 4 4 4 4 4 5 6 7 8 9 9 7 5 3 2 3 4 5 5 4 4 5 8 10 11 10 9 8 6 4 2 3 4 5 5 4 4 4 6 6 5 3 3 3 3 3 2 1 2 4 7 9 10 8 5 3 2 2 2
7 7 6 6 7 7 7 7 8 8 8 8 8 8 8 7 7 6 6 7 7 8 8 9 9 10 11 11 11 12 12 11 11 10 10 9 8 8 7 7 7 6 6 5 4 4 4 4 4 4 4 5 7 8 9 8 7 5 3 2 3 3 5 5 4 4 4 7 9 10 10 9 8 6 3 3 3 4 5 4 4 5 5 6 5 4 4 3 3 2 2 2 3 4 5 8 10 10 7 4 3 2 2
5 5 5 5 5 5 5 5 5 6 6 7 7 7 8 7 7 6 6 6 7 7 8 8 9 9 10 11 11 11 12 12 12 11 11 10 9 9 8 7 7 7 6 6 5 5 4 4 4 4 4 4 5 6 8 9 8 7 5 4 2 2 3 4 5 4 4 4 6 8 11 10 10 8 6 4 3 3 3 5 5 6 6 6 5 4 4 4 4 3 4 3 4 4 4 6 9 11 10 6 3 2 2
3 3 3 3 3 3 4 4 4 4 5 5 5 6 6 7 7 7 6 7 7 7 8 8 8 9 9 10 10 11 11 12 12 12 12 11 11 10 9 8 8 7 7 6 6 5 5 4 4 4 4 4 4 5 6 7 8 8 7 5 4 2 2 3 3 4 4 4 5 6 8 10 11 10 8 5 4 3 2 3 4 5 6 7 6 4 3 4 5 6 7 6 5 4 4 5 8 11 13 9 5 3 2
2 2 2 2 3 3 4 4 4 5 5 5 6 6 6 7 7 7 7 7 7 7 8 8 8 8 9 9 9 10 11 11 11 12 12 12 12 11 10 9 8 8 7 7 7 6 5 5 4 4 4 4 4 4 5 6 7 8 8 7 6 4 2 2 2 3 4 4 4 5 6 8 10 11 10 8 6 4 3 2 2 2 3 7 8 7 3 3 4 6 8 9 8 5 4 3 5 8 13 12 9 5 2
3 3 4 4 5 6 7 7 7 8 8 8 8 9 9 9 9 9 9 9 9 9 8 8 8 8 8 8 9 9 10 10 11 11 12 12 12 12 11 10 9 8 8 8 7 7 6 5 5 4 4 4 4 4 4 5 6 7 8 8 7 6 4 2 2 1 2 3 4 5 5 6 8 10 11 10 9 7 5 4 2 1 1 4 7 8 7 5 5 5 6 9 9 7 4 2 3 5 9 12 12 9 4
6 7 8 8 9 10 10 10 10 11 11 11 11 11 12 11 11 11 12 12 12 12 11 11 10 9 9 9 9 9 9 10 10 11 11 11 12 12 12 11 10 9 8 8 7 7 7 6 5 5 4 4 4 4 4 4 5 5 7 8 8 7 6 4 3 1 1 2 3 4 5 5 7 9 10 11 11 9 8 6 5 3 2 2 4 6 9 9 7 4 3 6 8 8 6 3 2 2 5 9 12 12 8
11 11 12 11 11 12 11 11 12 13 13 12 12 11 12 12 12 11 12 12 13 14 14 14 13 12 11 10 10 9 9 9 10 10 11 11 11 12 12 12 11 10 9 9 8 7 7 7 6 5 5 4 4 4 4 4 4 4 5 6 7 8 8 6 5 3 1 1 1 2 3 4 5 7 9 10 11 10 10 8 6 5 5 2 2 4 8 9 8 5 2 2 4 6 8 5 2 1 1 5 9 12 13
16 16 17 16 15 15 14 13 13 14 14 13 13 12 12 13 13 12 12 12 12 13 14 15 15 15 15 13 12 11 10 9 9 10 10 11 11 11 12 12 12 11 11 10 9 8 7 7 7 6 6 5 5 4 4 4 4 4 4 5 6 7 8 8 7 5 2 1 0 1 2 3 4 5 7 9 10 10 11 10 9 7 5 3 2 3 6 6 6 5 4 3 3 4 7 7 4 1 -1 1 4 8 13
21 22 22 22 21 21 20 19 18 17 17 16 15 15 14 15 15 15 14 14 14 13 14 14 15 16 17 17 16 14 12 11 10 9 9 10 11 11 11 12 12 12 12 10 9 8 7 7 7 6 6 6 5 5 4 4 4 4 4 4 5 6 7 8 8 7 5 2 1 0 1 2 3 4 5 8 9 10 12 12 11 9 6 5 4 4 5 4 5 6 7 6 5 5 6 6 6 4 0 -0 1 4 7
25 26 26 26 25 25 25 24 23 21 21 19 19 19 17 17 16 15 14 14 15 14 14 14 15 16 17 18 18 17 16 14 12 11 10 10 10 10 11 11 12 12 12 11 11 10 8 7 7 7 6 6 6 5 5 4 4 4 4 4 4 5 6 7 8 8 7 5 3 1 0 1 2 3 4 5 7 9 11 12 12 11 9 7 5 5 5 4 6 8 10 9 8 6 5 6 7 7 5 2 1 1 2
27 28 28 28 28 28 28 27 26 25 25 23 22 22 21 20 19 18 17 15 15 15 14 14 15 15 16 18 19 19 19 17 15 13 11 10 10 10 10 11 11 12 12 12 12 11 9 8 7 7 7 6 6 6 5 5 4 4 4 4 4 4 5 6 7 8 8 7 5 3 1 1 1 2 3 3 5 8 10 11 12 12 10 9 7 6 6 4 5 7 10 10 9 7 5 4 6 8 8 6 3 0 -0
28 28 28 28 28 28 29 28 28 28 27 26 25 24 23 23 22 21 20 19 18 16 15 15 15 15 15 16 18 20 20 19 18 16 14 12 11 10 10 10 11 11 12 12 12 11 10 9 8 7 7 6 6 6 6 5 5 5 4 4 4 4 4 5 6 7 8 8 7 5 3 1 1 1 2 1 2 4 9 10 11 11 11 10 9 8 8 6 5 5 6 9 10 10 8 6 5 6 8 7 5 2 -1
26 26 25 26 26 26 26 27 28 28 27 27 27 27 26 25 25 25 23 22 21 20 18 17 16 16 15 16 17 19 19 20 20 18 17 15 13 12 11 10 10 11 11 11 11 12 11 10 9 7 7 6 6 6 6 6 5 5 5 5 4 4 4 4 5 6 7 8 8 7 5 3 1 1 1 1 1 2 6 8 8 8 9 10 10 10 10 10 8 5 4 5 7 9 10 9 7 6 6 7 7 5 3
23 22 22 22 23 23 23 24 25 25 26 26 27 27 27 26 26 26 26 25 25 24 22 21 19 18 16 17 17 17 19 20 20 19 19 17 15 14 12 11 11 11 10 11 11 12 12 12 10 9 7 7 6 6 6 6 5 5 5 5 5 4 4 4 4 5 6 7 8 8 7 5 3 2 1 1 1 2 4 6 6 5 6 8 9 10 11 11 9 7 5 4 4 6 9 10 9 7 6 7 8 8 7
20 20 20 20 20 20 20 21 22 22 23 24 25 26 26 25 26 26 26 26 26 26 26 24 23 21 19 18 18 18 19 19 19 19 20 19 17 15 14 13 12 11 10 11 11 11 12 12 12 10 8 7 7 6 6 6 6 5 5 5 5 5 5 4 4 4 5 6 7 8 8 7 5 4 2 2 1 1 2 6 7 7 6 7 8 9 10 11 10 9 8 6 4 4 6 7 7 8 7 7 8 9 10
19 19 19 19 19 19 19 20 20 20 20 21 22 23 23 23 24 24 24 24 25 26 27 27 26 25 23 21 20 20 20 20 20 20 20 20 19 18 16 14 13 11 11 11 11 11 11 12 12 11 10 8 7 6 6 6 6 6 5 5 5 5 5 5 4 4 4 5 5 7 8 8 7 6 4 3 2 2 1 4 6 7 7 6 6 7 9 10 10 10 9 8 5 3 2 2 3 5 6 6 7 8 9
19 19 19 19 19 19 19 19 19 19 19 19 20 20 21 21 22 22 23 23 23 24 25 26 27 28 26 24 23 22 22 22 22 21 20 20 19 19 18 16 14 13 12 11 11 11 11 11 12 12 11 9 8 7 6 6 6 6 5 6 5 5 5 5 5 5 4 4 5 5 7 8 8 7 6 4 3 2 1 1 3 5 6 5 4 4 6 8 9 9 9 8 7 5 4 2 1 1 2 4 5 6 7
19 19 19 19 19 19 19 19 19 19 19 19 19 19 19 20 20 21 21 21 21 21 22 24 26 27 27 26 25 24 23 23 23 22 21 20 20 19 19 17 16 14 13 12 11 11 11 11 11 11 12 11 9 8 7 6 6 6 5 6 6 5 5 5 5 5 5 4 4 4 5 7 8 8 7 6 4 3 2 0 1 3 6 5 3 3 4 5 6 7 7 6 6 5 4 3 2 1 1 1 2 3 4
19 19 20 20 20 20 20 20 20 20 20 20 19 19 19 20 20 20 20 20 20 20 20 20 22 23 25 26 26 25 24 24 24 23 23 22 21 20 19 18 17 16 14 13 12 12 11 11 11 11 11 11 10 9 7 7 6 6 6 6 6 6 5 5 5 5 5 5 4 4 4 6 7 8 8 7 5 4 3 1 0 1 5 6 5 4 4 4 5 6 6 6 5 4 3 2 2 2 2 1 1 0 0
20 21 21 21 21 22 22 22 22 21 21 21 21 20 20 20 20 20 20 20 20 19 19 19 19 20 22 24 25 25 25 25 24 24 23 23 22 21 20 19 18 17 15 14 13 12 11 11 11 11 10 11 11 10 8 7 6 6 6 5 6 6 6 5 5 5 5 5 5 4 4 5 6 7 8 8 7 6 4 2 -0 -0 3 6 7 7 5 5 5 6 7 6 5 4 3 2 1 1 2 3 2 1 -1
22 23 23 23 24 24 24 24 24 23 23 23 22 22 21 21 21 20 20 20 20 20 19 19 19 19 19 21 23 24 25 25 25 25 24 24 23 22 21 20 19 18 16 15 14 13 12 11 11 10 10 11 11 10 9 8 7 6 6 5 5 6 6 5 5 5 5 5 5 5 4 4 5 6 7 8 8 7 6 4 1 -1 -0 4 6 7 6 5 5 5 6 7 7 6 5 3 2 1 1 5 7 7 3
24 24 25 25 25 25 25 25 25 25 25 24 24 23 23 22 22 21 20 21 21 20 20 20 20 19 18 19 20 22 23 24 25 25 24 25 25 24 24 22 20 18 17 16 15 14 13 12 11 10 10 10 10 10 10 9 8 7 6 6 5 5 6 6 5 5 6 6 6 5 5 4 4 5 6 7 8 8 7 6 2 -1 -3 0 3 5 6 6 5 4 5 7 9 9 7 5 3 2 2 5 9 12 10
25 25 25 25 25 25 25 26 26 26 26 25 25 25 24 24 23 23 21 21 21 21 20 21 21 20 19 18 19 20 21 22 24 24 23 24 25 25 25 24 21 19 18 17 15 14 14 13 12 11 10 10 10 10 10 10 9 7 6 6 5 5 5 6 6 6 6 6 6 6 6 5 4 4 5 6 7 7 8 8 5 2 -2 -2 -1 2 5 6 6 5 4 6 8 10 9 7 5 2 0 3 6 10 13
24 24 24 24 24 24 24 24 24 25 25 25 25 25 25 25 25 24 23 22 21 20 20 21 21 21 21 19 18 19 20 21 22 23 23 23 23 25 26 25 23 21 19 17 16 15 14 13 12 12 11 10 10 9 10 10 9 8 7 6 5 5 5 5 5 5 6 6 6 6 6 6 5 4 4 5 6 6 7 8 7 5 0 -2 -2 -1 3 6 6 6 5 6 8 9 10 9 6 3 2 17 18 14 10
21 21 21 21 21 21 21 21 22 22 23 23 24 24 25 25 25 25 25 24 22 21 19 20 20 21 22 21 20 19 19 20 21 23 23 22 22 23 25 25 24 23 20 18 17 16 15 14 13 12 12 10 10 9 9 10 10 9 8 7 6 5 5 5 5 6 6 6 6 6 5 6 6 5 4 5 5 6 6 8 8 7 4 -0 -2 -2 0 4 6 7 7 7 8 9 10 11 9 10 21 52 49 30 14
18 17 17 17 17 17 18 18 19 19 20 21 21 22 23 24 25 26 26 25 24 23 21 19 19 20 21 21 21 20 19 20 21 22 24 23 22 21 22 24 25 24 22 20 18 17 16 14 14 13 12 11 10 10 10 10 10 9 9 7 6 6 5 5 5 5 5 6 7 6 4 7 7 6 4 5 5 5 5 7 8 8 7 3 -1 -3 -3 1 4 7 8 8 8 8 10 13 13 21 48 76 65 41 26
15 15 15 15 15 15 15 16 16 17 17 18 19 20 20 22 23 24 26 26 26 26 24 21 20 19 20 21 21 20 20 20 21 22 24 24 23 21 19 21 24 25 24 21 20 18 16 15 14 13 12 11 11 11 10 10 10 10 9 7 6 6 5 5 5 5 5 6 6 6 3 6 6 6 5 5 5 5 5 6 7 8 8 6 2 -1 -3 -2 1 4 7 7 8 8 8 10 13 25 51 61 55 44 43
13 13 13 13 13 13 13 14 14 15 15 16 16 17 18 19 20 22 24 25 26 27 27 26 23 21 19 19 20 20 20 20 21 21 23 25 25 23 19 18 21 24 26 24 21 19 18 17 15 13 13 12 12 11 10 10 10 10 8 7 7 6 6 5 5 5 5 5 7 7 5 5 5 5 4 5 5 5 4 5 6 7 9 8 5 2 -2 -2 -1 1 4 6 7 6 7 6 7 12 25 25 24 28 41
12 12 12 12 12 12 12 13 13 13 13 14 14 15 16 16 17 19 20 22 24 26 27 28 27 25 22 20 19 20 21 21 21 21 22 24 26 25 22 18 17 20 25 25 23 20 20 18 17 15 14 13 12 11 11 11 10 10 8 9 7 6 6 6 5 5 5 5 6 8 7 6 6 5 3 4 5 6 4 4 5 6 8 8 7 5 2 -0 -0 1 2 4 3 2 5 4 -2 -7 -7 -4 -5 -6 -1
13 13 13 13 13 13 13 12 12 12 13 13 13 14 14 15 15 16 17 19 21 23 25 27 29 28 27 23 21 19 19 20 21 21 22 23 25 27 26 21 17 16 20 24 23 21 20 20 19 17 15 14 13 12 12 12 11 10 9 9 8 6 6 6 6 5 5 5 5 7 9 9 7 5 4 4 5 6 5 4 4 5 6 8 8 7 5 2 2 2 3 3 2 1 3 3 -7 -20 -28 -19 -16 -19 -27
15 15 15 15 14 14 14 13 13 13 13 13 13 13 13 13 14 14 15 16 17 19 21 24 27 29 30 27 24 21 19 20 20 21 21 23 25 27 28 24 19 16 16 20 23 23 21 20 20 19 17 15 14 13 13 12 11 10 11 9 7 7 6 6 6 6 6 4 4 5 9 10 9 8 8 6 6 6 6 5 4 4 5 7 8 9 7 5 3 2 2 3 4 3 2 4 -6 -22 -38 -32 -24 -19 -23
16 17 17 17 16 16 16 15 14 14 13 13 13 12 12 13 13 13 14 14 15 16 18 20 23 25 29 30 28 25 22 21 21 21 22 22 23 26 29 28 23 18 13 16 20 22 22 21 21 21 19 17 15 14 13 12 12 11 11 9 8 7 6 6 6 6 6 5 3 2 5 8 9 9 10 9 7 6 6 5 4 4 4 6 9 10 10 7 5 3 1 3 4 5 3 4 -0 -12 -33 -40 -36 -27 -20
16 16 17 17 17 17 17 17 16 16 15 14 14 13 13 13 12 13 13 13 14 14 15 17 18 21 24 28 29 28 27 25 22 21 22 21 20 23 29 32 29 23 15 14 16 20 23 21 21 21 21 19 17 15 15 13 12 12 11 10 9 8 6 7 7 6 6 6 5 2 1 4 7 9 10 11 10 7 5 6 5 4 3 5 7 9 11 10 8 6 2 3 4 5 5 4 4 2 -8 -25 -34 -38 -35
13 13 14 15 16 17 17 17 17 17 17 16 15 14 14 13 13 13 12 12 13 13 14 14 15 17 19 23 26 29 29 29 25 22 20 21 20 20 25 31 33 30 22 15 14 16 21 20 19 19 21 21 19 17 16 15 13 12 13 11 10 8 7 7 7 7 6 7 6 4 0 2 5 8 9 10 10 8 5 7 6 5 3 4 5 8 10 10 9 8 5 4 3 4 5 5 4 5 5 -1 -11 -22 -30
9 10 10 11 12 13 14 16 17 17 18 17 17 16 15 14 14 13 13 13 12 12 13 13 14 15 16 19 22 26 29 30 29 26 21 21 22 22 23 26 30 32 28 21 17 15 17 21 20 18 18 22 22 20 18 16 15 14 14 12 11 10 8 7 7 7 7 7 7 5 3 1 2 5 7 8 10 10 9 9 8 6 5 4 3 4 6 9 12 13 13 10 7 5 4 5 4 4 4 7 5 -0 -8
7 7 7 7 8 9 10 12 14 15 17 18 18 17 17 16 15 14 14 13 13 13 12 13 13 13 14 15 18 21 25 28 31 30 26 23 22 23 22 21 26 30 31 26 21 17 14 18 20 19 18 20 22 22 19 17 17 17 14 13 13 11 9 8 8 7 7 7 7 6 5 2 2 3 5 9 11 11 10 8 8 9 7 4 4 4 6 9 12 14 15 15 13 10 7 7 6 5 3 4 6 7 4
6 6 6 6 7 7 7 8 10 11 13 15 17 18 18 17 17 16 15 14 14 13 13 13 13 13 13 14 15 16 19 24 28 31 31 26 22 21 23 23 25 29 33 29 23 18 14 15 17 18 17 19 22 23 20 18 18 18 15 15 14 12 10 10 8 8 7 7 7 6 6 3 2 1 2 4 6 7 7 7 9 10 8 5 2 1 1 5 8 10 13 16 18 17 14 12 10 8 5 3 3 4 5
7 7 7 7 7 7 7 7 8 8 9 11 13 16 17 18 17 17 16 16 15 14 14 13 13 13 13 13 13 14 16 19 24 27 30 30 26 23 21 22 24 27 33 33 28 21 14 15 17 18 15 16 20 24 22 19 19 19 19 17 15 14 13 11 9 8 8 8 8 7 6 5 3 2 1 2 3 5 6 8 10 12 12 7 4 1 -1 -1 1 4 7 10 14 17 18 17 15 13 11 7 4 2 2
9 9 9 9 9 9 9 8 8 8 8 8 10 12 14 16 17 18 17 17 16 15 15 14 14 13 13 13 13 13 14 16 19 23 26 29 30 28 23 20 20 22 26 33 33 28 20 16 16 18 19 13 15 20 24 20 19 19 20 18 17 15 15 13 11 10 9 9 9 9 8 6 4 3 2 2 2 4 7 9 10 10 10 9 6 3 -0 -2 -3 -2 0 1 3 7 11 14 16 17 16 13 8 4 1
9 10 10 10 10 10 10 10 10 9 9 8 8 9 10 13 15 17 18 17 17 16 16 15 15 14 14 13 13 13 14 14 16 19 22 26 30 31 27 23 19 19 21 27 31 33 32 20 15 16 19 14 14 16 18 20 21 20 17 19 18 17 16 15 13 12 10 9 9 9 8 7 5 3 3 3 3 3 5 9 10 9 7 8 7 5 1 -2 -2 -1 1 2 0 -1 1 5 10 14 17 16 13 9 5
10 10 10 10 10 11 11 11 11 11 10 10 9 9 9 10 12 14 16 17 17 17 16 16 15 15 14 14 14 14 14 14 15 16 19 23 27 29 30 27 24 21 21 24 27 31 34 25 19 16 13 15 18 19 13 16 19 21 19 19 19 19 18 17 16 14 12 11 10 10 9 8 6 5 5 5 5 5 5 10 12 12 9 8 8 7 5 0 -2 -2 1 4 4 2 -3 -2 1 5 10 13 13 12 11
9 9 10 10 10 10 11 11 11 11 11 11 11 10 10 9 9 11 13 15 16 17 17 16 16 16 15 15 14 14 14 14 14 15 17 20 23 26 29 30 27 23 21 23 26 29 30 28 24 19 12 15 18 19 16 16 17 18 19 20 20 20 19 18 18 16 14 13 11 10 9 9 7 6 6 5 6 7 7 11 13 13 12 8 8 9 9 4 1 -1 0 4 6 6 2 -2 -4 -3 -0 3 6 8 10
8 9 9 9 9 10 10 10 11 11 11 11 12 11 11 10 9 9 10 12 14 16 17 17 16 16 16 15 15 15 14 14 14 15 15 17 19 22 27 29 29 26 22 22 25 28 30 30 26 21 16 14 13 13 15 18 19 17 15 18 19 20 20 20 19 18 16 14 13 11 10 9 8 6 5 5 6 9 10 10 11 11 11 7 7 8 10 8 7 7 8 8 8 7 6 4 1 -2 -2 -1 -0 1 5
Height
5810 5809 5808 5807 5807 5806 5805 5805 5805 5804 5804 5804 5804 5803 5803 5803 5803 5803 5803 5802 5802 5802 5803 5803 5803 5804 5804 5804 5804 5804 5804 5804 5805 5805 5806 5806 5807 5807 5808 5809 5809 5809 5809 5809 5809 5809 5810 5810 5810 5811 5812 5812 5813 5814 5815 5815 5816 5817 5819 5820 5821 5822 5823 5824 5825 5826 5827 5828 5829 5830 5831 5833 5833 5834 5835 5836 5837 5839 5840 5841 5842 5842 5843 5844 5845 5845 5846 5847 5847 5848 5848 5849 5850 5850 5851 5851 5852 5852 5853 5853 5854 5855 5856
5806 5805 5804 5804 5803 5802 5802 5801 5800 5800 5800 5800 5800 5799 5799 5799 5799 5799 5799 5799 5799 5799 5799 5800 5800 5800 5800 5800 5800 5800 5800 5800 5800 5801 5801 5802 5803 5803 5804 5805 5805 5805 5805 5805 5805 5805 5806 5806 5808 5809 5810 5809 5810 5810 5811 5812 5813 5815 5816 5817 5818 5820 5820 5821 5823 5824 5825 5825 5827 5828 5829 5830 5831 5832 5833 5834 5835 5836 5838 5839 5840 5840 5841 5842 5842 5843 5844 5845 5846 5846 5847 5848 5848 5849 5850 5850 5851 5851 5852 5852 5853 5853 5854
5802 5801 5800 5800 5799 5798 5798 5797 5796 5796 5795 5795 5795 5795 5795 5795 5795 5794 5794 5795 5795 5795 5795 5796 5796 5796 5797 5796 5796 5796 5795 5796 5796 5796 5797 5798 5798 5799 5800 5801 5801 5801 5801 5801 5802 5802 5803 5804 5805 5805 5806 5806 5807 5808 5809 5809 5810 5811 5813 5814 5815 5816 5818 5819 5820 5821 5822 5823 5824 5825 5826 5827 5829 5830 5830 5831 5833 5834 5835 5836 5837 5839 5840 5840 5841 5842 5842 5843 5844 5845 5845 5846 5847 5847 5848 5849 5850 5850 5851 5851 5851 5852 5853
5797 5796 5796 5795 5795 5794 5793 5793 5792 5792 5791 5791 5790 5790 5790 5790 5790 5790 5790 5790 5790 5791 5791 5792 5792 5792 5792 5792 5792 5792 5791 5792 5792 5792 5793 5793 5794 5795 5796 5796 5796 5797 5798 5798 5799 5800 5800 5801 5801 5802 5803 5804 5804 5805 5806 5806 5807 5808 5810 5811 5812 5813 5815 5816 5817 5818 5819 5820 5821 5822 5824 5825 5826 5827 5828 5830 5830 5832 5833 5833 5835 5837 5839 5839 5840 5840 5840 5841 5842 5843 5844 5844 5845 5846 5846 5847 5848 5849 5850 5850 5850 5851 5851
5792 5791 5791 5790 5790 5789 5789 5788 5788 5787 5787 5786 5786 5786 5785 5785 5785 5785 5785 5785 5786 5787 5787 5787 5788 5788 5788 5788 5787 5787 5788 5788 5788 5788 5789 5789 5790 5790 5791 5791 5792 5793 5794 5795 5796 5796 5797 5798 5798 5799 5800 5800 5801 5802 5802 5803 5804 5805 5806 5808 5809 5810 5811 5813 5814 5815 5816 5817 5819 5820 5821 5822 5823 5825 5826 5827 5829 5830 5829 5831 5833 5834 5836 5836 5837 5838 5838 5840 5841 5842 5842 5842 5843 5844 5845 5846 5846 5847 5848 5848 5849 5849 5850
5787 5786 5785 5785 5785 5784 5784 5783 5783 5782 5782 5782 5781 5781 5780 5780 5780 5780 5780 5781 5781 5782 5782 5782 5782 5783 5783 5783 5783 5783 5783 5784 5784 5784 5785 5785 5785 5786 5786 5787 5788 5789 5790 5791 5792 5793 5794 5794 5795 5796 5796 5797 5798 5799 5799 5800 5801 5802 5803 5805 5806 5807 5808 5810 5811 5812 5813 5815 5816 5817 5818 5819 5822 5824 5823 5825 5826 5827 5827 5828 5830 5831 5832 5834 5835 5836 5836 5837 5839 5841 5840 5841 5841 5842 5843 5844 5845 5845 5846 5847 5847 5848 5849
5781 5780 5780 5780 5779 5779 5778 5778 5777 5777 5777 5776 5776 5776 5775 5775 5775 5775 5775 5776 5776 5776 5776 5777 5777 5777 5777 5778 5778 5778 5779 5779 5780 5780 5780 5781 5781 5781 5782 5783 5784 5785 5786 5787 5788 5789 5790 5790 5791 5792 5793 5794 5794 5795 5796 5797 5798 5799 5800 5801 5802 5804 5805 5806 5808 5809 5811 5812 5813 5814 5815 5817 5818 5820 5821 5822 5822 5823 5825 5826 5827 5829 5830 5831 5832 5833 5834 5835 5836 5838 5840 5840 5840 5841 5841 5842 5843 5844 5845 5845 5846 5847 5847
5775 5774 5774 5774 5773 5773 5772 5772 5771 5771 5771 5771 5770 5770 5770 5770 5770 5770 5770 5770 5771 5771 5771 5771 5771 5772 5772 5773 5773 5773 5774 5775 5775 5775 5776 5776 5776 5777 5778 5779 5780 5781 5782 5783 5783 5784 5785 5786 5787 5788 5789 5790 5791 5791 5792 5793 5794 5795 5796 5798 5799 5800 5802 5803 5805 5806 5807 5809 5810 5811 5813 5816 5817 5818 5818 5820 5821 5822 5822 5823 5825 5826 5827 5829 5830 5831 5832 5833 5834 5836 5837 5839 5839 5839 5840 5840 5842 5842 5843 5844 5845 5845 5846
5768 5767 5767 5767 5767 5766 5766 5766 5766 5765 5765 5765 5765 5765 5765 5765 5765 5765 5765 5765 5765 5765 5765 5765 5766 5766 5767 5767 5768 5768 5769 5770 5770 5770 5771 5771 5772 5773 5774 5775 5776 5777 5777 5778 5779 5780 5780 5782 5783 5784 5785 5786 5787 5788 5789 5790 5790 5791 5793 5794 5795 5796 5798 5800 5801 5803 5804 5805 5807 5809 5811 5813 5814 5815 5816 5818 5819 5819 5820 5821 5822 5823 5825 5826 5827 5829 5830 5831 5832 5833 5834 5836 5837 5837 5838 5839 5840 5840 5841 5842 5843 5844 5844
5760 5760 5760 5760 5759 5759 5759 5759 5759 5759 5759 5759 5759 5759 5759 5759 5759 5759 5759 5759 5759 5759 5759 5760 5760 5761 5761 5762 5763 5763 5764 5765 5765 5765 5766 5766 5767 5768 5769 5770 5771 5772 5773 5773 5774 5775 5776 5777 5778 5780 5781 5782 5784 5785 5785 5786 5787 5788 5789 5790 5792 5793 5794 5796 5797 5799 5800 5802 5804 5805 5808 5810 5811 5812 5813 5814 5815 5817 5816 5818 5819 5820 5821 5823 5824 5826 5827 5828 5830 5830 5832 5834 5835 5835 5836 5837 5837 5839 5840 5840 5841 5842 5843
5754 5753 5752 5752 5751 5751 5751 5752 5752 5752 5752 5752 5752 5752 5752 5752 5752 5752 5752 5753 5753 5753 5753 5754 5754 5755 5756 5756 5757 5758 5759 5759 5760 5760 5760 5761 5762 5763 5765 5766 5767 5767 5768 5769 5770 5770 5771 5772 5774 5775 5777 5778 5780 5780 5782 5783 5784 5785 5785 5787 5788 5789 5791 5792 5794 5795 5797 5799 5800 5802 5805 5806 5808 5809 5809 5810 5810 5812 5814 5816 5817 5818 5818 5820 5821 5823 5824 5825 5827 5828 5829 5831 5832 5833 5835 5835 5835 5836 5837 5838 5839 5840 5841
5747 5746 5745 5744 5744 5743 5743 5744 5744 5745 5745 5745 5745 5745 5746 5746 5745 5745 5746 5746 5746 5747 5747 5748 5748 5749 5750 5750 5751 5752 5753 5753 5754 5754 5755 5755 5756 5758 5759 5761 5762 5763 5764 5765 5765 5766 5766 5768 5769 5771 5772 5774 5775 5776 5778 5779 5780 5781 5782 5783 5785 5786 5787 5789 5790 5792 5794 5795 5797 5799 5801 5802 5804 5805 5805 5806 5809 5810 5811 5814 5815 5815 5815 5817 5819 5820 5821 5823 5824 5825 5826 5828 5828 5830 5831 5832 5833 5834 5835 5836 5837 5838 5839
5741 5740 5739 5738 5737 5736 5735 5735 5735 5736 5737 5737 5738 5738 5739 5739 5738 5738 5739 5739 5740 5740 5741 5741 5742 5743 5743 5744 5745 5746 5747 5747 5748 5748 5749 5750 5751 5752 5754 5755 5757 5758 5759 5760 5760 5761 5762 5763 5765 5766 5768 5769 5771 5772 5774 5775 5776 5778 5779 5780 5781 5782 5784 5785 5787 5789 5790 5792 5794 5795 5797 5799 5800 5800 5802 5804 5805 5807 5807 5810 5811 5811 5813 5813 5815 5817 5819 5820 5821 5822 5824 5825 5826 5827 5828 5829 5830 5831 5833 5834 5835 5835 5837
5735 5734 5732 5731 5730 5729 5729 5728 5728 5728 5728 5729 5730 5730 5731 5731 5731 5731 5731 5732 5732 5733 5734 5735 5735 5736 5737 5738 5739 5740 5741 5741 5741 5742 5743 5744 5745 5747 5748 5750 5751 5752 5754 5755 5755 5756 5757 5759 5760 5762 5763 5765 5766 5768 5769 5771 5772 5774 5775 5776 5778 5779 5780 5782 5784 5785 5787 5789 5790 5792 5794 5795 5797 5798 5799 5801 5802 5803 5805 5807 5808 5809 5809 5810 5811 5814 5816 5817 5818 5820 5821 5822 5823 5825 5827 5827 5827 5829 5830 5831 5832 5833 5834
5727 5726 5725 5724 5723 5723 5722 5721 5721 5720 5720 5720 5721 5722 5723 5723 5723 5723 5723 5724 5725 5726 5727 5728 5729 5730 5730 5731 5732 5734 5735 5735 5735 5736 5737 5738 5740 5741 5742 5744 5745 5747 5748 5749 5750 5751 5752 5754 5755 5757 5758 5760 5761 5763 5765 5767 5768 5770 5771 5772 5774 5776 5778 5780 5781 5782 5784 5785 5787 5789 5790 5791 5794 5795 5795 5798 5799 5800 5802 5802 5804 5806 5806 5807 5809 5811 5812 5814 5815 5817 5818 5820 5820 5822 5825 5825 5825 5826 5827 5829 5830 5831 5832
5720 5718 5717 5716 5715 5715 5715 5714 5714 5713 5713 5713 5713 5714 5714 5714 5714 5715 5715 5716 5717 5718 5719 5720 5721 5723 5724 5725 5726 5727 5728 5728 5729 5730 5731 5732 5733 5735 5736 5738 5740 5741 5742 5743 5745 5746 5748 5749 5750 5752 5753 5755 5756 5758 5760 5762 5764 5766 5767 5768 5770 5772 5775 5776 5778 5779 5780 5782 5783 5785 5786 5788 5790 5791 5792 5794 5796 5798 5798 5799 5800 5802 5803 5805 5806 5807 5809 5812 5813 5814 5815 5817 5818 5819 5821 5822 5822 5823 5825 5826 5827 5828 5829
5712 5711 5710 5708 5707 5707 5706 5706 5706 5705 5705 5706 5706 5706 5706 5705 5705 5706 5706 5707 5709 5710 5711 5712 5714 5715 5716 5717 5719 5720 5720 5721 5722 5723 5724 5725 5727 5729 5730 5732 5733 5735 5736 5738 5739 5741 5742 5744 5745 5746 5748 5750 5751 5753 5755 5758 5760 5761 5763 5764 5766 5768 5770 5771 5773 5775 5776 5778 5780 5782 5783 5784 5786 5787 5789 5790 5791 5794 5795 5796 5798 5800 5800 5802 5803 5805 5807 5808 5809 5811 5812 5814 5815 5816 5817 5819 5820 5821 5822 5824 5825 5826 5827
5706 5704 5702 5701 5700 5699 5698 5698 5697 5697 5697 5698 5698 5698 5698 5697 5697 5697 5697 5699 5700 5701 5703 5705 5706 5707 5709 5710 5711 5712 5713 5714 5715 5716 5718 5719 5720 5722 5724 5725 5727 5728 5730 5731 5733 5735 5737 5738 5740 5741 5743 5745 5746 5749 5751 5753 5755 5756 5758 5760 5761 5763 5765 5766 5767 5769 5771 5774 5775 5777 5779 5781 5781 5783 5785 5786 5787 5790 5791 5793 5795 5796 5798 5799 5800 5802 5804 5804 5805 5807 5809 5811 5812 5814 5815 5817 5817 5818 5820 5821 5822 5823 5825
5699 5697 5695 5694 5692 5691 5690 5689 5689 5689 5689 5689 5690 5690 5690 5689 5688 5688 5689 5690 5691 5693 5695 5696 5698 5699 5700 5702 5703 5705 5706 5707 5709 5710 5711 5712 5714 5715 5717 5718 5720 5722 5724 5725 5727 5729 5731 5732 5734 5736 5738 5740 5741 5743 5745 5747 5749 5751 5753 5755 5757 5759 5760 5761 5763 5765 5766 5768 5770 5772 5774 5776 5777 5779 5781 5781 5783 5785 5787 5789 5791 5792 5794 5795 5797 5798 5800 5801 5803 5804 5806 5808 5809 5811 5812 5815 5815 5815 5817 5818 5819 5820 5822
5691 5690 5688 5686 5685 5683 5682 5681 5680 5680 5680 5680 5681 5681 5681 5680 5680 5680 5681 5682 5683 5684 5686 5688 5689 5691 5692 5694 5695 5696 5698 5700 5701 5703 5704 5705 5706 5708 5710 5711 5713 5715 5717 5719 5721 5723 5725 5726 5728 5730 5732 5734 5736 5738 5740 5742 5744 5746 5748 5750 5752 5754 5755 5757 5759 5761 5762 5764 5765 5768 5770 5771 5773 5775 5776 5777 5779 5781 5783 5785 5788 5790 5791 5792 5794 5795 5796 5798 5800 5801 5802 5804 5806 5807 5809 5811 5812 5813 5814 5815 5816 5818 5819
5682 5680 5680 5678 5676 5675 5674 5673 5672 5672 5671 5671 5671 5671 5672 5671 5671 5671 5673 5674 5675 5676 5677 5679 5680 5682 5684 5685 5687 5688 5690 5692 5694 5695 5697 5698 5700 5701 5702 5704 5706 5708 5710 5712 5714 5716 5718 5720 5722 5724 5726 5728 5730 5733 5735 5737 5739 5741 5743 5745 5747 5749 5751 5753 5755 5756 5758 5760 5761 5763 5765 5768 5769 5770 5772 5774 5776 5778 5779 5781 5784 5787 5788 5789 5790 5791 5793 5794 5796 5798 5799 5801 5802 5804 5806 5807 5809 5810 5811 5812 5813 5815 5816
5671 5670 5669 5668 5667 5665 5665 5664 5663 5663 5662 5662 5662 5661 5662 5661 5662 5663 5664 5665 5666 5667 5668 5669 5671 5673 5675 5676 5678 5680 5682 5684 5686 5688 5689 5691 5692 5694 5695 5697 5699 5701 5703 5705 5708 5710 5712 5714 5716 5718 5720 5722 5725 5727 5729 5731 5734 5735 5737 5740 5742 5744 5746 5748 5750 5752 5754 5756 5758 5760 5761 5763 5765 5766 5769 5770 5772 5774 5775 5778 5780 5783 5784 5785 5787 5789 5789 5790 5792 5794 5796 5798 5799 5801 5803 5804 5806 5807 5808 5810 5811 5812 5814
5660 5659 5658 5656 5655 5655 5654 5653 5653 5653 5652 5652 5652 5651 5651 5651 5652 5653 5655 5656 5657 5658 5659 5660 5662 5663 5665 5667 5670 5671 5673 5675 5678 5680 5681 5683 5685 5687 5688 5690 5692 5694 5696 5699 5701 5703 5705 5707 5710 5712 5714 5716 5719 5721 5724 5726 5728 5730 5732 5734 5737 5739 5741 5743 5745 5748 5750 5752 5754 5756 5757 5759 5760 5763 5766 5768 5769 5770 5772 5774 5777 5779 5779 5782 5784 5785 5785 5787 5789 5790 5792 5795 5796 5797 5800 5801 5803 5804 5805 5807 5809 5810 5811
5651 5649 5648 5645 5644 5644 5643 5642 5642 5642 5641 5641 5641 5641 5640 5640 5641 5643 5644 5646 5647 5649 5650 5651 5653 5654 5656 5659 5661 5663 5665 5667 5669 5671 5673 5675 5677 5679 5681 5683 5685 5687 5689 5691 5694 5696 5698 5701 5703 5705 5708 5710 5713 5715 5718 5720 5722 5725 5727 5729 5731 5734 5736 5739 5741 5743 5745 5748 5750 5752 5753 5755 5757 5760 5762 5764 5765 5767 5769 5770 5772 5775 5776 5779 5780 5781 5782 5783 5785 5787 5789 5791 5792 5794 5796 5798 5800 5801 5803 5804 5806 5808 5808
5642 5640 5639 5636 5635 5634 5633 5631 5631 5631 5630 5630 5630 5630 5630 5630 5630 5632 5633 5635 5637 5639 5640 5642 5643 5645 5647 5650 5651 5653 5655 5658 5661 5663 5665 5667 5670 5672 5674 5675 5678 5680 5682 5684 5687 5689 5691 5694 5696 5699 5701 5704 5707 5709 5712 5715 5717 5719 5722 5724 5726 5729 5731 5734 5736 5738 5741 5743 5745 5748 5750 5751 5754 5756 5757 5760 5762 5763 5765 5766 5769 5771 5773 5775 5777 5778 5780 5781 5782 5784 5786 5788 5790 5792 5794 5795 5796 5798 5800 5801 5803 5805 5805
5633 5632 5630 5627 5626 5625 5624 5622 5622 5621 5620 5620 5620 5620 5619 5619 5620 5621 5623 5624 5625 5628 5630 5632 5634 5635 5638 5640 5642 5644 5646 5649 5652 5654 5656 5659 5661 5664 5666 5668 5670 5672 5675 5677 5680 5682 5684 5687 5690 5692 5695 5697 5700 5703 5706 5709 5711 5714 5716 5718 5721 5723 5726 5728 5731 5733 5736 5739 5741 5743 5745 5747 5749 5751 5753 5755 5757 5759 5761 5763 5765 5767 5770 5771 5773 5775 5777 5778 5780 5781 5783 5785 5786 5788 5791 5792 5793 5795 5796 5798 5800 5802 5804
5624 5623 5621 5618 5617 5616 5615 5613 5613 5612 5612 5611 5610 5610 5610 5610 5610 5611 5612 5613 5614 5616 5619 5621 5624 5626 5628 5630 5632 5634 5637 5640 5643 5645 5648 5650 5653 5655 5658 5660 5663 5665 5668 5670 5672 5675 5677 5680 5682 5685 5688 5691 5694 5697 5700 5702 5705 5707 5710 5712 5715 5718 5720 5723 5725 5728 5731 5734 5736 5738 5741 5742 5745 5747 5750 5751 5753 5755 5758 5759 5761 5763 5766 5767 5769 5771 5774 5775 5776 5778 5780 5781 5783 5785 5787 5789 5790 5792 5794 5795 5797 5799 5801
5615 5613 5610 5609 5608 5607 5605 5604 5603 5603 5603 5602 5601 5601 5600 5600 5600 5601 5602 5603 5604 5605 5608 5610 5613 5615 5618 5620 5623 5625 5627 5630 5633 5636 5639 5641 5644 5647 5650 5652 5655 5657 5660 5662 5665 5667 5670 5672 5675 5678 5681 5684 5687 5690 5693 5696 5699 5701 5704 5706 5709 5712 5715 5717 5720 5723 5726 5728 5731 5733 5736 5738 5740 5742 5745 5748 5750 5752 5754 5755 5757 5759 5762 5764 5765 5768 5770 5772 5773 5774 5776 5778 5780 5781 5783 5785 5787 5789 5790 5792 5794 5795 5797
5606 5603 5601 5600 5599 5597 5596 5595 5594 5594 5593 5592 5592 5592 5591 5591 5591 5592 5593 5593 5594 5595 5597 5599 5601 5605 5608 5610 5613 5615 5618 5620 5623 5626 5629 5632 5635 5638 5641 5644 5647 5649 5652 5655 5658 5660 5662 5665 5668 5671 5674 5677 5680 5683 5686 5689 5692 5695 5697 5700 5703 5706 5709 5712 5715 5717 5720 5723 5725 5728 5731 5733 5735 5737 5740 5742 5745 5747 5750 5751 5753 5755 5758 5760 5762 5764 5766 5768 5770 5771 5772 5774 5775 5776 5779 5781 5783 5785 5787 5788 5790 5792 5794
5598 5595 5593 5591 5590 5588 5587 5585 5585 5584 5584 5583 5583 5583 5582 5582 5582 5583 5583 5584 5585 5586 5587 5589 5591 5594 5597 5600 5603 5605 5608 5610 5614 5617 5620 5623 5626 5629 5632 5635 5638 5641 5644 5647 5650 5652 5655 5658 5661 5664 5667 5670 5673 5676 5680 5683 5685 5688 5691 5694 5697 5700 5703 5706 5709 5712 5715 5717 5720 5723 5725 5728 5730 5732 5735 5737 5740 5743 5745 5747 5749 5751 5754 5756 5758 5760 5762 5764 5766 5767 5769 5770 5773 5775 5776 5778 5780 5782 5784 5785 5786 5788 5790
5590 5587 5585 5583 5581 5580 5578 5577 5576 5575 5575 5574 5574 5574 5573 5572 5573 5574 5574 5574 5575 5577 5578 5579 5581 5584 5586 5589 5592 5595 5598 5600 5604 5607 5610 5613 5616 5620 5623 5626 5630 5633 5636 5639 5642 5645 5648 5651 5654 5656 5660 5663 5666 5669 5673 5676 5679 5682 5685 5688 5691 5694 5697 5700 5703 5706 5709 5711 5715 5717 5720 5722 5725 5727 5730 5732 5735 5738 5741 5743 5745 5747 5749 5752 5755 5757 5759 5761 5762 5764 5765 5767 5767 5769 5773 5775 5776 5778 5780 5781 5783 5785 5786
5581 5579 5577 5575 5574 5572 5570 5569 5568 5567 5566 5565 5565 5565 5564 5563 5564 5565 5565 5565 5566 5568 5569 5570 5572 5574 5576 5579 5582 5585 5587 5590 5594 5598 5600 5603 5607 5610 5614 5617 5620 5624 5627 5630 5634 5637 5640 5643 5646 5649 5652 5655 5659 5662 5665 5669 5672 5675 5678 5681 5684 5687 5691 5694 5697 5700 5703 5706 5709 5712 5714 5717 5720 5723 5726 5729 5731 5734 5737 5739 5741 5743 5745 5748 5751 5753 5755 5757 5758 5760 5762 5764 5765 5767 5769 5771 5773 5775 5776 5777 5779 5780 5782
5574 5572 5570 5568 5566 5564 5562 5562 5561 5559 5558 5557 5557 5556 5555 5555 5555 5556 5556 5556 5558 5559 5559 5560 5562 5565 5567 5569 5571 5574 5577 5581 5584 5587 5590 5594 5597 5601 5604 5608 5611 5615 5618 5622 5626 5629 5632 5636 5639 5642 5645 5648 5651 5655 5658 5662 5665 5669 5671 5675 5678 5681 5685 5688 5691 5694 5697 5700 5703 5706 5709 5712 5715 5719 5721 5725 5727 5730 5733 5735 5737 5738 5740 5744 5747 5750 5751 5753 5755 5756 5758 5760 5761 5763 5765 5767 5770 5771 5772 5774 5775 5776 5777
5565 5564 5562 5560 5559 5557 5555 5554 5553 5551 5550 5550 5549 5548 5547 5547 5547 5547 5548 5548 5549 5550 5550 5552 5553 5555 5557 5560 5562 5565 5567 5571 5574 5577 5580 5584 5588 5591 5595 5599 5603 5606 5610 5614 5617 5621 5624 5628 5632 5635 5637 5640 5644 5647 5651 5655 5658 5662 5665 5668 5671 5674 5678 5682 5685 5688 5691 5694 5697 5700 5703 5707 5710 5714 5717 5720 5722 5725 5728 5731 5733 5735 5736 5739 5742 5745 5747 5749 5750 5752 5754 5755 5757 5759 5761 5764 5766 5768 5769 5770 5772 5773 5774
5558 5556 5554 5553 5551 5550 5548 5547 5545 5544 5543 5542 5541 5540 5539 5539 5539 5539 5540 5540 5541 5542 5542 5543 5545 5546 5548 5550 5553 5555 5558 5561 5564 5567 5570 5575 5578 5581 5585 5590 5594 5597 5601 5605 5609 5612 5616 5620 5624 5627 5630 5633 5636 5640 5644 5647 5651 5655 5658 5661 5664 5668 5672 5676 5679 5682 5685 5688 5691 5695 5698 5701 5705 5709 5712 5715 5718 5721 5723 5726 5729 5730 5732 5735 5737 5740 5743 5744 5746 5748 5750 5752 5753 5755 5758 5761 5763 5764 5766 5767 5768 5770 5770
5550 5548 5547 5545 5544 5542 5541 5540 5538 5537 5536 5535 5534 5533 5532 5531 5531 5531 5532 5532 5533 5534 5535 5535 5536 5538 5540 5542 5544 5546 5549 5551 5554 5557 5561 5565 5568 5572 5576 5580 5585 5588 5592 5596 5600 5604 5608 5612 5616 5619 5622 5626 5629 5632 5636 5640 5644 5647 5651 5654 5657 5661 5665 5669 5673 5676 5680 5682 5685 5689 5692 5696 5700 5703 5707 5710 5713 5716 5719 5722 5724 5726 5728 5730 5733 5736 5738 5740 5741 5743 5745 5748 5750 5751 5753 5756 5759 5760 5762 5764 5765 5766 5767
5543 5541 5539 5538 5536 5535 5533 5532 5531 5530 5529 5528 5526 5525 5525 5524 5524 5524 5524 5525 5525 5526 5527 5527 5529 5530 5531 5533 5535 5538 5540 5541 5545 5548 5551 5555 5558 5562 5567 5572 5575 5579 5584 5588 5591 5595 5600 5604 5607 5611 5615 5618 5621 5625 5629 5633 5636 5640 5644 5647 5651 5655 5658 5662 5666 5670 5673 5676 5680 5683 5687 5690 5694 5698 5702 5705 5708 5711 5714 5717 5720 5722 5724 5726 5729 5732 5735 5736 5738 5740 5741 5744 5746 5748 5750 5752 5755 5757 5759 5760 5761 5763 5765
5536 5534 5532 5530 5529 5527 5526 5525 5524 5523 5522 5520 5519 5518 5517 5517 5516 5516 5517 5517 5518 5518 5519 5520 5521 5522 5523 5525 5527 5529 5531 5533 5536 5539 5541 5545 5549 5554 5559 5563 5566 5570 5575 5579 5583 5587 5592 5595 5599 5602 5606 5610 5614 5618 5622 5625 5629 5633 5636 5640 5644 5648 5652 5656 5660 5664 5667 5670 5674 5677 5681 5685 5689 5692 5696 5699 5703 5706 5709 5712 5715 5717 5720 5722 5725 5728 5730 5733 5735 5736 5738 5740 5742 5744 5747 5749 5751 5753 5756 5758 5758 5759 5761
5530 5527 5525 5524 5522 5520 5519 5518 5517 5516 5515 5513 5512 5511 5510 5510 5509 5509 5510 5510 5510 5510 5511 5512 5514 5515 5516 5518 5520 5521 5523 5525 5527 5530 5532 5535 5540 5545 5550 5553 5557 5561 5566 5570 5574 5579 5584 5587 5590 5594 5599 5603 5607 5610 5614 5618 5622 5625 5629 5633 5637 5641 5645 5649 5653 5657 5660 5664 5667 5671 5675 5679 5683 5687 5690 5694 5697 5701 5704 5707 5710 5713 5715 5718 5720 5723 5726 5728 5731 5733 5735 5736 5739 5741 5743 5745 5747 5749 5753 5755 5756 5757 5759
5523 5521 5519 5517 5515 5514 5512 5511 5510 5509 5508 5507 5505 5504 5503 5503 5502 5502 5503 5503 5503 5503 5504 5505 5506 5507 5509 5510 5512 5514 5515 5517 5519 5521 5523 5527 5532 5537 5540 5543 5548 5552 5556 5560 5565 5570 5575 5578 5581 5586 5590 5594 5598 5602 5606 5610 5614 5618 5622 5627 5631 5635 5639 5642 5646 5650 5654 5658 5661 5665 5670 5674 5678 5682 5685 5689 5692 5696 5699 5702 5705 5708 5711 5713 5715 5718 5721 5723 5727 5730 5732 5734 5735 5737 5740 5742 5744 5746 5750 5754 5754 5753 5755
5518 5516 5514 5511 5510 5508 5507 5505 5504 5503 5501 5500 5499 5498 5497 5496 5496 5495 5496 5496 5496 5496 5497 5497 5498 5500 5501 5503 5505 5506 5508 5509 5511 5513 5515 5519 5523 5527 5530 5535 5539 5544 5547 5551 5556 5561 5565 5569 5573 5577 5581 5585 5590 5594 5599 5603 5607 5611 5615 5620 5624 5628 5632 5635 5640 5644 5648 5652 5656 5660 5665 5669 5673 5676 5680 5683 5687 5691 5694 5697 5700 5703 5706 5709 5711 5714 5716 5719 5722 5727 5730 5731 5732 5733 5736 5738 5740 5742 5746 5750 5751 5751 5752
5513 5511 5509 5507 5505 5503 5501 5500 5498 5497 5495 5494 5493 5492 5491 5490 5489 5489 5489 5490 5490 5490 5490 5490 5491 5492 5494 5495 5498 5500 5501 5502 5504 5505 5508 5511 5515 5519 5522 5526 5530 5535 5538 5543 5547 5552 5556 5560 5564 5568 5573 5577 5582 5587 5591 5595 5600 5604 5609 5613 5617 5621 5625 5629 5633 5638 5643 5647 5651 5655 5660 5663 5667 5671 5675 5678 5682 5686 5689 5692 5695 5699 5701 5704 5707 5710 5712 5715 5718 5722 5727 5730 5730 5730 5732 5734 5736 5738 5741 5747 5749 5749 5751
5509 5506 5504 5502 5500 5498 5496 5495 5493 5492 5490 5489 5487 5486 5485 5484 5483 5483 5483 5483 5483 5483 5484 5484 5485 5485 5486 5488 5490 5492 5494 5495 5496 5499 5501 5504 5507 5510 5514 5518 5522 5526 5529 5534 5538 5543 5546 5550 5555 5559 5564 5569 5574 5579 5584 5588 5592 5597 5602 5606 5610 5614 5618 5623 5627 5632 5637 5642 5646 5650 5655 5658 5661 5665 5669 5673 5676 5680 5684 5687 5690 5694 5697 5700 5703 5706 5709 5711 5715 5718 5723 5728 5729 5728 5728 5730 5733 5735 5737 5741 5745 5747 5747
5505 5503 5500 5498 5496 5494 5492 5490 5489 5487 5486 5484 5483 5481 5480 5479 5478 5477 5477 5477 5477 5477 5477 5478 5478 5479 5480 5481 5483 5485 5486 5488 5490 5491 5494 5496 5500 5503 5506 5510 5514 5517 5520 5525 5530 5534 5537 5542 5546 5550 5555 5561 5566 5571 5575 5580 5585 5590 5595 5599 5603 5607 5612 5617 5621 5626 5631 5636 5640 5645 5649 5652 5656 5660 5663 5667 5671 5675 5679 5682 5685 5689 5692 5695 5698 5701 5705 5707 5710 5714 5718 5724 5729 5729 5726 5728 5731 5733 5734 5735 5739 5742 5744
5501 5499 5497 5494 5492 5490 5488 5486 5485 5483 5481 5480 5478 5476 5475 5474 5473 5472 5471 5471 5471 5471 5471 5472 5472 5473 5474 5475 5476 5477 5479 5480 5482 5485 5487 5490 5492 5495 5499 5502 5505 5509 5512 5517 5521 5525 5528 5533 5537 5542 5547 5553 5558 5563 5567 5573 5578 5583 5587 5592 5596 5601 5605 5610 5615 5620 5625 5630 5634 5638 5643 5647 5651 5654 5658 5661 5665 5669 5673 5676 5680 5684 5688 5691 5694 5697 5700 5703 5706 5710 5714 5720 5726 5728 5726 5726 5729 5731 5731 5731 5733 5736 5740
5498 5495 5493 5490 5488 5486 5484 5482 5480 5479 5477 5475 5474 5472 5470 5469 5468 5467 5466 5466 5465 5465 5465 5466 5466 5467 5468 5468 5469 5470 5471 5473 5475 5477 5480 5483 5485 5488 5492 5495 5498 5501 5505 5509 5513 5516 5520 5524 5529 5534 5539 5544 5550 5555 5560 5565 5570 5575 5580 5585 5589 5594 5599 5603 5608 5613 5617 5623 5627 5632 5636 5640 5645 5649 5652 5656 5660 5664 5667 5671 5675 5679 5683 5687 5690 5693 5696 5699 5702 5705 5710 5714 5719 5723 5723 5724 5725 5727 5728 5729 5731 5733 5735
5494 5492 5489 5487 5485 5482 5480 5478 5476 5475 5473 5471 5470 5468 5466 5465 5464 5463 5462 5461 5461 5460 5460 5460 5461 5462 5462 5463 5463 5464 5464 5465 5468 5471 5474 5476 5478 5481 5485 5488 5491 5494 5497 5501 5504 5508 5511 5515 5520 5525 5530 5536 5541 5547 5552 5557 5562 5567 5572 5577 5582 5586 5591 5596 5601 5605 5610 5615 5621 5625 5630 5634 5638 5642 5645 5649 5654 5658 5662 5666 5670 5675 5678 5682 5685 5689 5691 5695 5698 5701 5704 5707 5711 5715 5716 5720 5721 5721 5723 5725 5728 5731 5732
5490 5488 5485 5483 5481 5479 5476 5474 5472 5471 5469 5467 5466 5464 5462 5461 5460 5458 5457 5457 5456 5456 5455 5455 5455 5456 5456 5457 5457 5457 5458 5459 5461 5464 5466 5469 5472 5475 5478 5481 5484 5487 5490 5493 5496 5500 5504 5507 5512 5517 5522 5528 5534 5539 5544 5549 5554 5559 5565 5569 5574 5580 5585 5589 5594 5599 5603 5608 5614 5619 5623 5627 5632 5635 5639 5643 5648 5653 5657 5661 5665 5670 5673 5677 5680 5683 5687 5690 5694 5697 5698 5700 5703 5707 5711 5714 5716 5717 5717 5719 5722 5726 5727
5486 5484 5482 5480 5477 5475 5472 5470 5469 5467 5465 5463 5461 5460 5458 5457 5455 5454 5453 5452 5451 5451 5450 5450 5450 5450 5451 5452 5452 5452 5452 5452 5454 5456 5459 5462 5465 5468 5471 5475 5477 5480 5483 5486 5489 5492 5496 5500 5504 5509 5515 5520 5526 5531 5535 5540 5546 5552 5557 5562 5567 5573 5577 5582 5587 5591 5596 5601 5607 5612 5616 5621 5626 5630 5634 5639 5643 5648 5652 5655 5660 5664 5668 5671 5675 5678 5681 5685 5690 5692 5693 5695 5698 5702 5706 5708 5711 5713 5713 5714 5717 5720 5721
5483 5480 5478 5476 5473 5471 5469 5467 5465 5463 5461 5459 5457 5456 5454 5453 5451 5450 5449 5448 5447 5447 5446 5446 5445 5445 5446 5446 5446 5446 5446 5446 5448 5450 5453 5456 5458 5461 5464 5468 5470 5473 5476 5479 5482 5485 5488 5493 5497 5502 5507 5513 5518 5522 5527 5533 5539 5544 5549 5555 5560 5565 5570 5575 5580 5584 5589 5595 5600 5605 5610 5615 5620 5624 5629 5633 5638 5642 5647 5650 5655 5659 5663 5666 5669 5672 5675 5680 5684 5686 5688 5690 5693 5696 5700 5703 5706 5708 5710 5711 5712 5714 5716
5479 5477 5474 5472 5470 5467 5465 5463 5461 5459 5457 5455 5454 5452 5450 5449 5447 5446 5445 5444 5443 5442 5442 5441 5441 5441 5441 5441 5441 5441 5441 5441 5442 5445 5447 5449 5451 5454 5457 5460 5462 5465 5469 5473 5476 5479 5482 5486 5490 5495 5500 5505 5509 5514 5520 5525 5531 5536 5541 5547 5553 5558 5562 5567 5572 5577 5583 5588 5593 5598 5604 5608 5613 5618 5623 5628 5632 5637 5641 5646 5650 5654 5658 5661 5664 5666 5670 5675 5678 5680 5682 5685 5688 5691 5695 5698 5701 5704 5705 5707 5709 5710 5712
5475 5473 5471 5468 5466 5464 5461 5459 5457 5455 5453 5452 5450 5448 5446 5445 5443 5442 5441 5440 5439 5438 5438 5437 5437 5436 5436 5436 5436 5436 5436 5436 5437 5439 5441 5442 5444 5447 5450 5452 5456 5461 5464 5467 5470 5473 5475 5480 5485 5489 5493 5497 5501 5506 5512 5517 5523 5528 5534 5539 5545 5550 5555 5560 5565 5570 5576 5581 5585 5590 5596 5602 5607 5612 5617 5622 5627 5631 5635 5639 5644 5648 5653 5657 5659 5661 5664 5669 5672 5675 5676 5679 5682 5686 5690 5693 5696 5699 5701 5703 5705 5707 5709
5472 5470 5467 5465 5463 5460 5458 5456 5453 5451 5450 5448 5446 5444 5443 5441 5439 5438 5437 5435 5435 5434 5433 5433 5432 5432 5432 5432 5432 5431 5431 5431 5431 5433 5435 5436 5438 5441 5444 5448 5452 5455 5457 5460 5463 5466 5470 5474 5479 5483 5486 5490 5494 5499 5504 5510 5515 5520 5526 5532 5537 5543 5547 5553 5558 5563 5569 5574 5579 5584 5590 5595 5601 5606 5611 5616 5621 5626 5630 5633 5637 5641 5645 5649 5653 5656 5659 5663 5666 5669 5672 5674 5677 5681 5685 5688 5691 5694 5696 5700 5702 5704 5705
5469 5466 5464 5461 5459 5456 5454 5452 5450 5447 5445 5444 5442 5440 5439 5437 5435 5434 5433 5431 5430 5430 5429 5428 5428 5428 5428 5428 5428 5427 5426 5426 5426 5428 5430 5432 5433 5435 5438 5441 5443 5444 5446 5452 5456 5460 5464 5468 5471 5475 5479 5482 5486 5491 5496 5502 5508 5513 5518 5524 5530 5535 5540 5545 5551 5556 5562 5567 5572 5577 5583 5589 5595 5600 5605 5610 5615 5620 5623 5627 5631 5635 5639 5643 5648 5651 5655 5659 5662 5665 5668 5670 5673 5676 5680 5683 5686 5689 5692 5695 5698 5700 5702
5465 5463 5460 5457 5455 5453 5450 5448 5446 5444 5442 5440 5438 5436 5435 5433 5431 5430 5429 5427 5426 5425 5425 5424 5424 5423 5423 5423 5423 5423 5423 5422 5422 5423 5425 5425 5427 5429 5430 5433 5436 5439 5443 5449 5453 5455 5457 5460 5463 5467 5471 5475 5480 5485 5490 5495 5500 5505 5511 5517 5523 5528 5533 5539 5544 5549 5555 5559 5564 5570 5577 5583 5589 5595 5599 5604 5609 5614 5618 5622 5626 5630 5634 5639 5643 5647 5652 5655 5658 5661 5664 5666 5669 5672 5675 5678 5681 5685 5688 5690 5694 5697 5699
5462 5459 5456 5454 5451 5449 5446 5444 5442 5440 5438 5436 5434 5432 5431 5429 5427 5426 5425 5423 5422 5421 5420 5420 5419 5419 5419 5419 5419 5419 5419 5419 5418 5419 5420 5420 5421 5422 5425 5429 5433 5437 5440 5443 5445 5446 5448 5452 5456 5461 5466 5469 5474 5479 5483 5488 5493 5498 5504 5510 5515 5520 5526 5531 5536 5542 5547 5552 5558 5565 5571 5577 5583 5589 5594 5598 5603 5608 5612 5616 5621 5625 5629 5633 5637 5642 5647 5650 5654 5657 5659 5662 5665 5667 5670 5674 5677 5680 5683 5686 5689 5692 5695
5458 5455 5452 5450 5447 5445 5442 5440 5438 5435 5433 5432 5430 5428 5426 5425 5423 5422 5420 5419 5418 5417 5416 5415 5415 5414 5414 5414 5415 5415 5415 5415 5415 5415 5415 5415 5415 5417 5420 5424 5427 5429 5431 5433 5435 5437 5441 5446 5453 5458 5459 5461 5466 5472 5476 5480 5485 5491 5497 5503 5508 5513 5518 5523 5529 5534 5540 5545 5552 5559 5565 5570 5576 5582 5587 5592 5597 5602 5606 5611 5615 5619 5622 5626 5631 5636 5640 5644 5648 5651 5654 5657 5659 5662 5665 5669 5672 5675 5679 5682 5685 5688 5691
5454 5451 5448 5445 5443 5440 5438 5435 5433 5431 5429 5427 5425 5424 5422 5420 5419 5418 5416 5415 5414 5412 5412 5411 5410 5410 5410 5410 5410 5410 5411 5411 5411 5411 5411 5411 5411 5413 5415 5417 5419 5421 5425 5427 5430 5433 5438 5443 5449 5451 5450 5454 5461 5467 5470 5475 5480 5486 5491 5496 5500 5505 5510 5516 5521 5527 5533 5539 5545 5552 5557 5563 5569 5575 5580 5585 5591 5596 5601 5605 5609 5611 5615 5619 5625 5630 5634 5638 5641 5645 5649 5652 5655 5658 5661 5664 5667 5671 5675 5678 5681 5684 5687
5449 5446 5444 5441 5438 5436 5433 5431 5429 5426 5425 5423 5421 5419 5418 5416 5415 5413 5412 5411 5409 5408 5407 5407 5406 5406 5405 5405 5405 5406 5406 5406 5407 5407 5407 5407 5408 5408 5410 5411 5414 5417 5420 5422 5425 5429 5433 5438 5440 5441 5443 5451 5458 5462 5466 5470 5476 5480 5484 5488 5493 5498 5503 5509 5514 5520 5525 5532 5538 5544 5550 5556 5562 5567 5574 5580 5585 5590 5595 5599 5602 5605 5609 5614 5620 5625 5629 5632 5636 5639 5643 5647 5651 5654 5657 5660 5663 5666 5670 5674 5677 5680 5683
5445 5442 5439 5436 5434 5431 5429 5426 5424 5422 5420 5418 5416 5415 5413 5412 5410 5409 5408 5406 5405 5404 5403 5402 5402 5401 5401 5401 5401 5401 5401 5402 5403 5403 5404 5404 5404 5404 5405 5406 5409 5411 5413 5415 5418 5422 5425 5429 5432 5435 5442 5449 5454 5456 5460 5464 5469 5472 5476 5481 5486 5491 5496 5501 5506 5512 5518 5524 5530 5537 5543 5549 5555 5561 5567 5573 5579 5584 5588 5593 5597 5600 5605 5611 5616 5620 5623 5627 5630 5634 5637 5641 5646 5650 5652 5655 5658 5661 5665 5669 5673 5677 5680
5440 5437 5435 5432 5429 5426 5424 5421 5419 5417 5415 5413 5411 5410 5408 5407 5405 5405 5403 5402 5401 5400 5399 5398 5397 5397 5397 5397 5397 5397 5397 5398 5399 5399 5400 5400 5400 5400 5401 5402 5403 5405 5407 5410 5413 5416 5419 5422 5427 5432 5439 5443 5446 5449 5452 5457 5461 5465 5470 5475 5480 5485 5490 5494 5499 5504 5510 5517 5523 5530 5536 5542 5548 5555 5561 5567 5572 5577 5582 5587 5591 5596 5601 5606 5611 5615 5619 5622 5626 5630 5632 5636 5640 5644 5647 5649 5653 5656 5660 5665 5668 5673 5677